Home   Weather   Hat Yai   Past weeks

Flag for Thailand Past Weather in Hat Yai, Thailand — Yesterday and Last 2 Weeks

75 °F


Feels Like: 73 °F
Forecast: 76 / 87 °F
Wind: No wind

Location: Hat Yai Airport

Current Time: Oct 26, 2016 at 5:41:01 AM

Latest Report: Oct 26, 2016 at 5:00 AM

Visibility: 2 mi

Pressure: 29.74 "Hg

Humidity: 100%

Dew Point: 75 °F

Location of Hat YaiLocation

Past Weather in Hat Yai — Graph


Hat Yai Temperature Yesterday

Maximum temperature yesterday: 91 °F (at 1:00 PM)
Minimum temperature yesterday: 75 °F (at 12:00 AM)
Average temperature yesterday: 81 °F

High & Low Weather Summary for the Past Weeks

High95 °F (Oct 11, 2:00 PM)100% (Oct 11, 4:00 AM)29.89 "Hg (Oct 11, 4:00 AM)
Low75 °F (Oct 12, 3:00 AM)20% (Oct 19, 4:00 PM)29.65 "Hg (Oct 13, 3:30 PM)
Average81 °F86%29.77 "Hg
* Reported Oct 11 4:00 AM — Oct 26 4:30 AM, Hat Yai, Weather by CustomWeather, © 2016

Note: Actual official high and low records may vary slightly from our data, if they occured in-between our weather recording intervals... More about our weather records


Hat Yai Weather History for the Previous 24 Hours

Scroll right to see more
Time TempWeatherWind HumidityBarometerVisibility
4:30 AM
Wed, Oct 26
75 °FFog.No wind100%29.74 "Hg2 mi
4:00 AM75 °FFog.No wind100%29.77 "Hg3 mi
3:30 AM75 °FFog.No wind100%29.77 "Hg3 mi
3:00 AM77 °FFog.2 mph100%29.77 "Hg3 mi
2:30 AM77 °FLight rain. Passing clouds.No wind100%29.77 "Hg4 mi
2:00 AM77 °FPassing clouds.3 mph100%29.77 "Hg4 mi
1:30 AM77 °FPassing clouds.No wind100%29.80 "Hg4 mi
1:00 AM77 °FPassing clouds.No wind100%29.80 "Hg5 mi
12:30 AM77 °FPassing clouds.2 mph100%29.80 "Hg5 mi
12:00 AM77 °FPassing clouds.2 mph100%29.83 "HgN/A
11:30 PM
Tue, Oct 25
77 °FPassing clouds.No wind100%29.83 "HgN/A
11:00 PM77 °FPassing clouds.2 mph100%29.83 "HgN/A
10:30 PM77 °FPassing clouds.No wind100%29.83 "HgN/A
10:00 PM79 °FPassing clouds.3 mph89%29.83 "HgN/A
9:30 PM79 °FPassing clouds.No wind89%29.83 "HgN/A
9:00 PM81 °FPassing clouds.No wind84%29.83 "HgN/A
8:30 PM81 °FPassing clouds.No wind84%29.80 "HgN/A
8:00 PM81 °FPassing clouds.3 mph84%29.77 "HgN/A
7:30 PM82 °FPassing clouds.3 mph79%29.77 "HgN/A
7:00 PM82 °FPassing clouds.5 mph74%29.74 "HgN/A
6:30 PM82 °FPassing clouds.5 mph74%29.74 "HgN/A
6:00 PM84 °FPassing clouds.6 mph74%29.71 "HgN/A
5:30 PM86 °FScattered clouds.7 mph70%29.71 "HgN/A
5:00 PM86 °FPartly sunny.9 mph66%29.71 "HgN/A
4:30 PM88 °FPartly sunny.9 mph59%29.71 "HgN/A
4:00 PM90 °FPartly sunny.9 mph59%29.71 "HgN/A
3:30 PM88 °FPartly sunny.9 mph70%29.71 "HgN/A
3:00 PM88 °FPartly sunny.8 mph66%29.71 "HgN/A
2:30 PM88 °FPartly sunny.8 mph62%29.71 "HgN/A
2:00 PM90 °FPartly sunny.8 mph63%29.74 "HgN/A
1:30 PM88 °FPartly sunny.12 mph62%29.74 "HgN/A
1:00 PM91 °FPartly sunny.12 mph56%29.77 "HgN/A
12:30 PM90 °FPartly sunny.6 mph63%29.77 "HgN/A
12:00 PM88 °FBroken clouds.6 mph66%29.80 "HgN/A
11:30 AM88 °FPartly sunny.6 mph66%29.80 "HgN/A
11:00 AM86 °FPartly sunny.5 mph70%29.83 "HgN/A
10:30 AM86 °FPartly sunny.7 mph66%29.83 "HgN/A
10:00 AM84 °FPartly sunny.7 mph70%29.83 "HgN/A
9:30 AM81 °FPartly sunny.6 mph84%29.83 "HgN/A
9:00 AM81 °FPartly sunny.6 mph89%29.83 "HgN/A
8:30 AM82 °FPartly sunny.2 mph89%29.83 "Hg5 mi
8:00 AM79 °FScattered showers. Broken clouds.2 mph100%29.83 "Hg5 mi
7:30 AM77 °FFog.No wind100%29.80 "Hg2 mi
7:00 AM75 °FFog.3 mph100%29.80 "Hg2 mi
6:30 AM75 °FFog.No wind100%29.77 "Hg3 mi
6:00 AM75 °FFog.2 mph100%29.77 "Hg3 mi
5:30 AM75 °FPassing clouds.2 mph100%29.74 "Hg4 mi
5:00 AM75 °FPassing clouds.2 mph100%29.74 "Hg4 mi
Weather by CustomWeather, © 2016

See weather overviewHow to use our weather pages